Time,TemperatureF,DewpointF,PressureIn,WindDirection,WindDirectionDegrees,WindSpeedMPH,WindSpeedGustMPH,Humidity,HourlyPrecipIn,Conditions,Clouds,dailyrainin,SoftwareType,DateUTC
2016-02-10 00:06:00,29.1,26.1,30.19,West,275,0.0,0.0,88,0.00,,,0.00,meteobridge,2016-02-10 06:06:00,
2016-02-10 00:11:00,28.9,25.9,30.19,West,275,0.0,0.0,88,0.00,,,0.00,meteobridge,2016-02-10 06:11:00,
2016-02-10 00:17:00,28.8,25.9,30.19,West,275,0.0,0.0,89,0.00,,,0.00,meteobridge,2016-02-10 06:17:00,
2016-02-10 00:22:00,28.8,26.2,30.19,West,275,0.0,0.0,90,0.00,,,0.00,meteobridge,2016-02-10 06:22:00,
2016-02-10 00:27:00,28.8,26.2,30.19,West,275,0.0,0.0,90,0.00,,,0.00,meteobridge,2016-02-10 06:27:00,
2016-02-10 00:32:00,28.8,26.2,30.19,West,275,0.0,0.0,90,0.00,,,0.00,meteobridge,2016-02-10 06:32:00,
2016-02-10 00:37:00,28.8,26.2,30.19,West,275,0.0,0.0,90,0.00,,,0.00,meteobridge,2016-02-10 06:37:00,
2016-02-10 00:42:00,28.8,26.2,30.19,West,275,0.0,0.0,90,0.00,,,0.00,meteobridge,2016-02-10 06:42:00,
2016-02-10 00:47:00,28.8,26.2,30.19,West,275,0.0,0.0,90,0.00,,,0.00,meteobridge,2016-02-10 06:47:00,
2016-02-10 00:52:00,28.8,25.9,30.19,West,275,0.0,0.0,89,0.00,,,0.00,meteobridge,2016-02-10 06:52:00,
2016-02-10 00:57:00,28.6,26.1,30.19,West,275,0.0,0.0,90,0.00,,,0.00,meteobridge,2016-02-10 06:57:00,
2016-02-10 01:02:00,28.4,25.9,30.19,West,275,0.0,0.0,90,0.00,,,0.00,meteobridge,2016-02-10 07:02:00,
2016-02-10 01:07:00,28.2,25.7,30.19,West,275,0.0,0.0,90,0.00,,,0.00,meteobridge,2016-02-10 07:07:00,
2016-02-10 01:12:00,28.2,25.9,30.19,West,275,0.0,0.0,91,0.00,,,0.00,meteobridge,2016-02-10 07:12:00,
2016-02-10 01:17:00,28.2,26.2,30.19,West,275,0.0,0.0,92,0.00,,,0.00,meteobridge,2016-02-10 07:17:00,
2016-02-10 01:22:00,28.4,26.4,30.19,West,275,0.0,0.0,92,0.00,,,0.00,meteobridge,2016-02-10 07:22:00,
2016-02-10 01:27:00,28.6,26.2,30.20,West,275,0.0,0.0,91,0.00,,,0.00,meteobridge,2016-02-10 07:27:00,
2016-02-10 01:33:00,28.8,26.8,30.20,West,276,0.0,0.0,92,0.00,,,0.00,meteobridge,2016-02-10 07:33:00,
2016-02-10 01:38:00,29.8,25.9,30.20,West,259,2.0,2.0,85,0.00,,,0.00,meteobridge,2016-02-10 07:38:00,
2016-02-10 01:43:00,32.4,25.7,30.20,NE,39,0.0,2.0,76,0.00,,,0.00,meteobridge,2016-02-10 07:43:00,
2016-02-10 01:48:00,33.6,24.8,30.20,NNW,332,4.0,4.0,70,0.00,,,0.00,meteobridge,2016-02-10 07:48:00,
2016-02-10 01:53:00,34.2,25.0,30.21,NNE,33,0.0,2.0,69,0.00,,,0.00,meteobridge,2016-02-10 07:53:00,
2016-02-10 01:58:00,34.2,24.6,30.21,West,264,0.9,2.0,68,0.00,,,0.00,meteobridge,2016-02-10 07:58:00,
2016-02-10 02:03:00,34.5,23.9,30.21,North,349,2.0,5.0,65,0.00,,,0.00,meteobridge,2016-02-10 08:03:00,
2016-02-10 02:08:00,35.1,23.4,30.21,WNW,290,0.0,3.0,62,0.00,,,0.00,meteobridge,2016-02-10 08:08:00,
2016-02-10 02:13:00,35.1,23.0,30.22,NNW,327,0.9,7.0,61,0.00,,,0.00,meteobridge,2016-02-10 08:13:00,
2016-02-10 02:18:00,35.2,22.3,30.22,North,356,2.0,12.0,59,0.00,,,0.00,meteobridge,2016-02-10 08:18:00,
2016-02-10 02:23:00,35.2,22.3,30.22,WNW,288,0.0,3.0,59,0.00,,,0.00,meteobridge,2016-02-10 08:23:00,
2016-02-10 02:28:00,35.1,22.1,30.22,NW,326,0.0,2.0,59,0.00,,,0.00,meteobridge,2016-02-10 08:28:00,
2016-02-10 02:33:00,34.9,21.6,30.22,NW,309,0.0,2.0,58,0.00,,,0.00,meteobridge,2016-02-10 08:33:00,
2016-02-10 02:38:00,34.7,21.9,30.22,NNW,330,0.9,1.0,59,0.00,,,0.00,meteobridge,2016-02-10 08:38:00,
2016-02-10 02:44:00,34.5,21.7,30.22,North,352,0.0,2.0,59,0.00,,,0.00,meteobridge,2016-02-10 08:44:00,
2016-02-10 02:49:00,34.3,21.6,30.22,NNW,330,0.0,2.0,59,0.00,,,0.00,meteobridge,2016-02-10 08:49:00,
2016-02-10 02:54:00,34.3,21.0,30.22,WSW,250,0.0,4.0,58,0.00,,,0.00,meteobridge,2016-02-10 08:54:00,
2016-02-10 02:59:00,34.2,20.8,30.22,WSW,248,0.0,2.0,58,0.00,,,0.00,meteobridge,2016-02-10 08:59:00,
2016-02-10 03:04:00,34.0,20.3,30.23,WSW,257,0.0,1.0,57,0.00,,,0.00,meteobridge,2016-02-10 09:04:00,
2016-02-10 03:09:00,33.8,20.7,30.23,West,265,0.0,3.0,58,0.00,,,0.00,meteobridge,2016-02-10 09:09:00,
2016-02-10 03:14:00,33.4,20.3,30.23,NNE,15,2.0,4.0,58,0.00,,,0.00,meteobridge,2016-02-10 09:14:00,
2016-02-10 03:19:00,33.4,20.3,30.24,WSW,240,0.0,3.0,58,0.00,,,0.00,meteobridge,2016-02-10 09:19:00,
2016-02-10 03:24:00,33.3,20.1,30.24,NW,324,0.0,3.0,58,0.00,,,0.00,meteobridge,2016-02-10 09:24:00,
2016-02-10 03:29:00,33.3,20.1,30.24,West,273,0.9,3.0,58,0.00,,,0.00,meteobridge,2016-02-10 09:29:00,
2016-02-10 03:34:00,33.3,20.1,30.24,West,278,0.0,2.0,58,0.00,,,0.00,meteobridge,2016-02-10 09:34:00,
2016-02-10 03:39:00,33.1,19.9,30.24,NW,309,0.0,2.0,58,0.00,,,0.00,meteobridge,2016-02-10 09:39:00,
2016-02-10 03:44:00,32.9,20.1,30.24,ENE,57,0.0,1.0,59,0.00,,,0.00,meteobridge,2016-02-10 09:44:00,
2016-02-10 04:05:00,32.4,19.6,30.26,North,356,0.0,3.0,59,0.00,,,0.00,meteobridge,2016-02-10 10:05:00,
2016-02-10 04:10:00,32.2,19.9,30.26,NE,41,0.0,2.0,60,0.00,,,0.00,meteobridge,2016-02-10 10:10:00,
2016-02-10 04:15:00,32.0,19.8,30.26,WSW,242,0.9,1.0,60,0.00,,,0.00,meteobridge,2016-02-10 10:15:00,
2016-02-10 04:20:00,31.8,19.9,30.26,NNE,22,0.0,1.0,61,0.00,,,0.00,meteobridge,2016-02-10 10:20:00,
2016-02-10 04:25:00,31.6,19.8,30.26,WSW,256,0.0,2.0,61,0.00,,,0.00,meteobridge,2016-02-10 10:25:00,
2016-02-10 04:30:00,31.5,19.6,30.27,West,267,0.0,0.0,61,0.00,,,0.00,meteobridge,2016-02-10 10:30:00,
2016-02-10 04:35:00,31.3,19.8,30.27,WSW,248,0.0,1.0,62,0.00,,,0.00,meteobridge,2016-02-10 10:35:00,
2016-02-10 04:40:00,31.3,19.8,30.27,West,262,0.0,1.0,62,0.00,,,0.00,meteobridge,2016-02-10 10:40:00,
2016-02-10 04:45:00,31.3,19.8,30.27,WSW,250,0.0,1.0,62,0.00,,,0.00,meteobridge,2016-02-10 10:45:00,
2016-02-10 04:50:00,30.9,19.4,30.27,West,266,0.0,0.0,62,0.00,,,0.00,meteobridge,2016-02-10 10:50:00,
2016-02-10 04:55:00,30.7,19.6,30.28,West,260,0.0,1.0,63,0.00,,,0.00,meteobridge,2016-02-10 10:55:00,
2016-02-10 05:01:00,30.6,19.8,30.28,WSW,240,0.0,0.0,64,0.00,,,0.00,meteobridge,2016-02-10 11:01:00,
2016-02-10 05:06:00,30.2,19.9,30.28,WSW,256,0.0,0.0,65,0.00,,,0.00,meteobridge,2016-02-10 11:06:00,
2016-02-10 05:11:00,29.8,19.6,30.28,WSW,257,0.0,1.0,65,0.00,,,0.00,meteobridge,2016-02-10 11:11:00,
2016-02-10 05:16:00,29.7,19.8,30.29,WSW,255,0.0,0.0,66,0.00,,,0.00,meteobridge,2016-02-10 11:16:00,
2016-02-10 05:21:00,29.7,19.8,30.29,WSW,255,0.0,0.0,66,0.00,,,0.00,meteobridge,2016-02-10 11:21:00,
2016-02-10 05:26:00,29.5,19.6,30.29,WSW,255,0.0,0.0,66,0.00,,,0.00,meteobridge,2016-02-10 11:26:00,
2016-02-10 05:31:00,29.3,19.8,30.29,WSW,255,0.0,0.0,67,0.00,,,0.00,meteobridge,2016-02-10 11:31:00,
2016-02-10 05:36:00,28.9,19.4,30.29,WSW,255,0.0,0.0,67,0.00,,,0.00,meteobridge,2016-02-10 11:36:00,
2016-02-10 05:41:00,28.8,19.9,30.30,WSW,255,0.0,0.0,69,0.00,,,0.00,meteobridge,2016-02-10 11:41:00,
2016-02-10 05:46:00,28.6,20.3,30.30,WSW,249,0.0,0.0,71,0.00,,,0.00,meteobridge,2016-02-10 11:46:00,
2016-02-10 05:51:00,27.9,20.3,30.30,WSW,249,0.0,0.0,73,0.00,,,0.00,meteobridge,2016-02-10 11:51:00,
2016-02-10 05:56:00,27.3,21.0,30.30,WSW,249,0.0,0.0,77,0.00,,,0.00,meteobridge,2016-02-10 11:56:00,
2016-02-10 06:02:00,26.8,21.4,30.30,WSW,249,0.0,0.0,80,0.00,,,0.00,meteobridge,2016-02-10 12:02:00,
2016-02-10 06:07:00,26.4,21.4,30.30,WSW,249,0.0,0.0,81,0.00,,,0.00,meteobridge,2016-02-10 12:07:00,
2016-02-10 06:12:00,26.1,21.0,30.31,WSW,249,0.0,0.0,81,0.00,,,0.00,meteobridge,2016-02-10 12:12:00,
2016-02-10 06:17:00,25.9,20.8,30.31,WSW,249,0.0,0.0,81,0.00,,,0.00,meteobridge,2016-02-10 12:17:00,
2016-02-10 06:22:00,25.7,20.7,30.31,WSW,249,0.0,0.0,81,0.00,,,0.00,meteobridge,2016-02-10 12:22:00,
2016-02-10 06:32:00,25.3,20.7,30.32,WSW,249,0.0,0.0,82,0.00,,,0.00,meteobridge,2016-02-10 12:32:00,
2016-02-10 06:37:00,25.3,20.7,30.32,WSW,250,0.0,0.0,82,0.00,,,0.00,meteobridge,2016-02-10 12:37:00,
2016-02-10 06:42:00,25.2,20.5,30.32,WSW,249,0.0,0.0,82,0.00,,,0.00,meteobridge,2016-02-10 12:42:00,
2016-02-10 06:52:00,25.5,21.4,30.32,WSW,249,0.0,0.0,84,0.00,,,0.00,meteobridge,2016-02-10 12:52:00,
2016-02-10 07:02:00,27.0,21.9,30.33,WSW,249,0.0,0.0,81,0.00,,,0.00,meteobridge,2016-02-10 13:02:00,
2016-02-10 07:07:00,27.9,22.5,30.33,WSW,249,0.0,0.0,80,0.00,,,0.00,meteobridge,2016-02-10 13:07:00,
2016-02-10 07:17:00,30.0,21.7,30.33,WSW,245,0.0,1.0,71,0.00,,,0.00,meteobridge,2016-02-10 13:17:00,
2016-02-10 07:22:00,30.7,21.4,30.33,NW,317,0.0,0.0,68,0.00,,,0.00,meteobridge,2016-02-10 13:22:00,
2016-02-10 07:33:00,32.0,21.2,30.34,WSW,245,0.0,1.0,64,0.00,,,0.00,meteobridge,2016-02-10 13:33:00,
2016-02-10 07:38:00,32.5,21.4,30.34,NNE,22,0.0,1.0,63,0.00,,,0.00,meteobridge,2016-02-10 13:38:00,
2016-02-10 07:43:00,32.9,20.8,30.34,SW,231,0.0,2.0,61,0.00,,,0.00,meteobridge,2016-02-10 13:43:00,
2016-02-10 07:48:00,33.4,21.0,30.34,NE,56,0.9,3.0,60,0.00,,,0.00,meteobridge,2016-02-10 13:48:00,
2016-02-10 07:58:00,34.5,20.8,30.35,WSW,258,0.0,3.0,57,0.00,,,0.00,meteobridge,2016-02-10 13:58:00,
2016-02-10 08:03:00,35.1,21.4,30.35,West,260,0.9,2.0,57,0.00,,,0.00,meteobridge,2016-02-10 14:03:00,
2016-02-10 08:08:00,35.4,19.9,30.35,NNW,335,0.0,3.0,53,0.00,,,0.00,meteobridge,2016-02-10 14:08:00,
2016-02-10 08:13:00,35.8,20.3,30.35,SW,222,2.0,3.0,53,0.00,,,0.00,meteobridge,2016-02-10 14:13:00,
2016-02-10 08:23:00,36.5,19.6,30.35,NW,309,4.0,6.0,50,0.00,,,0.00,meteobridge,2016-02-10 14:23:00,
2016-02-10 08:28:00,36.9,18.5,30.35,WNW,288,0.9,3.0,47,0.00,,,0.00,meteobridge,2016-02-10 14:28:00,
2016-02-10 08:33:00,37.0,17.6,30.35,NNW,336,2.9,5.0,45,0.00,,,0.00,meteobridge,2016-02-10 14:33:00,
2016-02-10 08:38:00,37.6,17.6,30.36,NW,305,0.9,3.0,44,0.00,,,0.00,meteobridge,2016-02-10 14:38:00,
2016-02-10 08:43:00,37.9,17.4,30.36,NE,55,0.9,3.0,43,0.00,,,0.00,meteobridge,2016-02-10 14:43:00,
2016-02-10 08:49:00,38.1,16.5,30.35,NNW,333,0.9,6.0,41,0.00,,,0.00,meteobridge,2016-02-10 14:49:00,
2016-02-10 08:54:00,38.5,17.4,30.36,NNW,347,4.0,8.0,42,0.00,,,0.00,meteobridge,2016-02-10 14:54:00,
2016-02-10 08:59:00,38.5,16.9,30.36,North,356,0.9,3.0,41,0.00,,,0.00,meteobridge,2016-02-10 14:59:00,
2016-02-10 09:04:00,38.8,17.1,30.35,West,265,2.0,8.0,41,0.00,,,0.00,meteobridge,2016-02-10 15:04:00,
2016-02-10 09:09:00,39.0,16.7,30.35,NNE,25,2.0,6.0,40,0.00,,,0.00,meteobridge,2016-02-10 15:09:00,
2016-02-10 09:14:00,39.6,16.7,30.35,North,6,2.9,8.0,39,0.00,,,0.00,meteobridge,2016-02-10 15:14:00,
2016-02-10 09:19:00,39.6,16.0,30.35,NNE,20,0.9,6.0,38,0.00,,,0.00,meteobridge,2016-02-10 15:19:00,
2016-02-10 09:24:00,39.6,16.0,30.35,NNW,328,2.9,9.0,38,0.00,,,0.00,meteobridge,2016-02-10 15:24:00,
2016-02-10 09:29:00,39.9,17.6,30.35,NW,316,0.9,2.0,40,0.00,,,0.00,meteobridge,2016-02-10 15:29:00,
2016-02-10 09:34:00,40.3,16.7,30.35,NW,305,0.9,4.0,38,0.00,,,0.00,meteobridge,2016-02-10 15:34:00,
2016-02-10 09:39:00,40.8,16.5,30.35,NNW,329,2.0,6.0,37,0.00,,,0.00,meteobridge,2016-02-10 15:39:00,
2016-02-10 09:49:00,40.8,16.0,30.35,WNW,293,4.0,7.0,36,0.00,,,0.00,meteobridge,2016-02-10 15:49:00,
2016-02-10 09:54:00,41.2,16.2,30.35,North,6,11.0,13.0,36,0.00,,,0.00,meteobridge,2016-02-10 15:54:00,
2016-02-10 09:59:00,41.2,14.9,30.35,ESE,112,0.0,11.0,34,0.00,,,0.00,meteobridge,2016-02-10 15:59:00,
2016-02-10 10:04:00,41.5,16.0,30.35,WSW,253,4.9,11.0,35,0.00,,,0.00,meteobridge,2016-02-10 16:04:00,
2016-02-10 10:09:00,41.7,15.4,30.35,SW,214,0.0,9.0,34,0.00,,,0.00,meteobridge,2016-02-10 16:09:00,
2016-02-10 10:14:00,41.7,15.4,30.35,NW,306,2.9,5.0,34,0.00,,,0.00,meteobridge,2016-02-10 16:14:00,
2016-02-10 10:20:00,42.1,15.8,30.35,NNW,333,4.0,9.0,34,0.00,,,0.00,meteobridge,2016-02-10 16:20:00,
2016-02-10 10:30:00,42.8,15.6,30.35,WNW,300,6.9,7.0,33,0.00,,,0.00,meteobridge,2016-02-10 16:30:00,
2016-02-10 10:35:00,43.3,16.2,30.35,WSW,250,2.0,5.0,33,0.00,,,0.00,meteobridge,2016-02-10 16:35:00,
2016-02-10 10:40:00,43.3,15.4,30.34,North,11,4.9,6.0,32,0.00,,,0.00,meteobridge,2016-02-10 16:40:00,
2016-02-10 10:45:00,43.5,16.3,30.34,North,359,0.0,6.0,33,0.00,,,0.00,meteobridge,2016-02-10 16:45:00,
2016-02-10 10:50:00,44.1,16.2,30.34,WNW,301,4.9,11.0,32,0.00,,,0.00,meteobridge,2016-02-10 16:50:00,
2016-02-10 10:55:00,44.2,16.2,30.34,West,266,2.0,4.0,32,0.00,,,0.00,meteobridge,2016-02-10 16:55:00,
2016-02-10 11:00:00,44.2,16.2,30.34,WNW,285,2.9,9.0,32,0.00,,,0.00,meteobridge,2016-02-10 17:00:00,
2016-02-10 11:05:00,44.2,15.4,30.34,West,261,2.0,5.0,31,0.00,,,0.00,meteobridge,2016-02-10 17:05:00,
2016-02-10 11:11:00,44.4,16.3,30.34,ENE,58,0.0,6.0,32,0.00,,,0.00,meteobridge,2016-02-10 17:11:00,
2016-02-10 11:16:00,45.1,16.3,30.34,West,262,2.9,9.0,31,0.00,,,0.00,meteobridge,2016-02-10 17:16:00,
2016-02-10 11:21:00,45.3,16.5,30.33,SW,226,0.9,6.0,31,0.00,,,0.00,meteobridge,2016-02-10 17:21:00,
2016-02-10 11:26:00,45.5,15.8,30.33,WNW,285,8.1,10.0,30,0.00,,,0.00,meteobridge,2016-02-10 17:26:00,
2016-02-10 11:31:00,45.9,16.9,30.33,NNE,27,0.0,3.0,31,0.00,,,0.00,meteobridge,2016-02-10 17:31:00,
2016-02-10 11:36:00,46.0,16.3,30.32,West,266,2.9,8.0,30,0.00,,,0.00,meteobridge,2016-02-10 17:36:00,
2016-02-10 11:41:00,46.2,18.0,30.32,SW,234,4.0,7.0,32,0.00,,,0.00,meteobridge,2016-02-10 17:41:00,
2016-02-10 11:46:00,46.6,16.9,30.32,NNE,15,2.0,5.0,30,0.00,,,0.00,meteobridge,2016-02-10 17:46:00,
2016-02-10 11:51:00,46.6,17.6,30.31,North,353,0.0,4.0,31,0.00,,,0.00,meteobridge,2016-02-10 17:51:00,
2016-02-10 11:56:00,46.9,17.1,30.31,NNE,30,2.9,7.0,30,0.00,,,0.00,meteobridge,2016-02-10 17:56:00,
2016-02-10 12:06:00,47.7,16.9,30.31,ESE,122,0.9,4.0,29,0.00,,,0.00,meteobridge,2016-02-10 18:06:00,
2016-02-10 12:11:00,47.7,16.2,30.30,SSW,196,0.9,4.0,28,0.00,,,0.00,meteobridge,2016-02-10 18:11:00,
2016-02-10 12:16:00,47.7,16.2,30.30,North,354,0.9,6.0,28,0.00,,,0.00,meteobridge,2016-02-10 18:16:00,
2016-02-10 12:21:00,47.8,15.4,30.30,NNW,338,2.0,12.0,27,0.00,,,0.00,meteobridge,2016-02-10 18:21:00,
2016-02-10 12:27:00,47.7,16.2,30.30,NE,56,2.9,9.0,28,0.00,,,0.00,meteobridge,2016-02-10 18:27:00,
2016-02-10 12:32:00,47.8,16.3,30.29,SW,220,4.9,9.0,28,0.00,,,0.00,meteobridge,2016-02-10 18:32:00,
2016-02-10 12:37:00,48.2,15.8,30.29,NNW,345,0.9,8.0,27,0.00,,,0.00,meteobridge,2016-02-10 18:37:00,
2016-02-10 12:42:00,48.6,15.3,30.29,NNW,340,6.0,10.0,26,0.00,,,0.00,meteobridge,2016-02-10 18:42:00,
2016-02-10 12:47:00,48.4,16.0,30.29,NNW,344,2.0,7.0,27,0.00,,,0.00,meteobridge,2016-02-10 18:47:00,
2016-02-10 12:52:00,48.7,16.2,30.29,WSW,244,2.9,4.0,27,0.00,,,0.00,meteobridge,2016-02-10 18:52:00,
2016-02-10 12:57:00,48.7,17.1,30.29,West,271,6.0,12.0,28,0.00,,,0.00,meteobridge,2016-02-10 18:57:00,
2016-02-10 13:02:00,48.9,16.3,30.29,NW,308,2.9,5.0,27,0.00,,,0.00,meteobridge,2016-02-10 19:02:00,
2016-02-10 13:07:00,48.9,17.2,30.28,WSW,245,0.9,9.0,28,0.00,,,0.00,meteobridge,2016-02-10 19:07:00,
2016-02-10 13:12:00,49.5,17.8,30.28,East,85,2.0,5.0,28,0.00,,,0.00,meteobridge,2016-02-10 19:12:00,
2016-02-10 13:17:00,49.3,17.6,30.28,NNE,28,0.0,8.0,28,0.00,,,0.00,meteobridge,2016-02-10 19:17:00,
2016-02-10 13:22:00,50.2,17.4,30.28,NE,48,0.9,8.0,27,0.00,,,0.00,meteobridge,2016-02-10 19:22:00,
2016-02-10 13:27:00,49.8,16.3,30.28,NNE,14,4.0,9.0,26,0.00,,,0.00,meteobridge,2016-02-10 19:27:00,
2016-02-10 13:32:00,49.6,16.2,30.28,NNE,24,2.0,6.0,26,0.00,,,0.00,meteobridge,2016-02-10 19:32:00,
2016-02-10 13:37:00,49.3,16.7,30.27,NNE,25,0.9,6.0,27,0.00,,,0.00,meteobridge,2016-02-10 19:37:00,
2016-02-10 13:42:00,49.6,16.2,30.27,NE,55,4.0,7.0,26,0.00,,,0.00,meteobridge,2016-02-10 19:42:00,
2016-02-10 13:47:00,50.2,16.5,30.27,NNE,19,0.9,8.0,26,0.00,,,0.00,meteobridge,2016-02-10 19:47:00,
2016-02-10 13:52:00,50.2,16.5,30.27,ENE,58,2.0,5.0,26,0.00,,,0.00,meteobridge,2016-02-10 19:52:00,
2016-02-10 13:57:00,50.2,16.5,30.27,North,359,2.9,11.0,26,0.00,,,0.00,meteobridge,2016-02-10 19:57:00,
2016-02-10 14:03:00,50.5,17.8,30.27,WNW,302,6.0,6.0,27,0.00,,,0.00,meteobridge,2016-02-10 20:03:00,
2016-02-10 14:08:00,50.5,16.0,30.27,North,8,0.9,5.0,25,0.00,,,0.00,meteobridge,2016-02-10 20:08:00,
2016-02-10 14:13:00,50.5,16.9,30.27,NNW,342,2.0,5.0,26,0.00,,,0.00,meteobridge,2016-02-10 20:13:00,
2016-02-10 14:18:00,51.1,17.4,30.27,South,187,0.0,4.0,26,0.00,,,0.00,meteobridge,2016-02-10 20:18:00,
2016-02-10 14:23:00,51.4,17.6,30.27,NNE,14,0.0,6.0,26,0.00,,,0.00,meteobridge,2016-02-10 20:23:00,
2016-02-10 14:28:00,51.3,16.7,30.27,West,262,0.0,8.0,25,0.00,,,0.00,meteobridge,2016-02-10 20:28:00,
2016-02-10 14:33:00,51.4,16.7,30.27,SSW,204,2.0,4.0,25,0.00,,,0.00,meteobridge,2016-02-10 20:33:00,
2016-02-10 14:38:00,51.3,17.6,30.27,WSW,252,6.0,8.0,26,0.00,,,0.00,meteobridge,2016-02-10 20:38:00,
2016-02-10 14:43:00,51.4,16.7,30.27,NW,322,2.0,8.0,25,0.00,,,0.00,meteobridge,2016-02-10 20:43:00,
2016-02-10 14:53:00,51.3,17.6,30.27,NW,320,2.9,9.0,26,0.00,,,0.00,meteobridge,2016-02-10 20:53:00,
2016-02-10 14:58:00,51.3,17.6,30.27,West,267,4.0,8.0,26,0.00,,,0.00,meteobridge,2016-02-10 20:58:00,
2016-02-10 15:03:00,51.1,16.5,30.27,North,356,6.0,9.0,25,0.00,,,0.00,meteobridge,2016-02-10 21:03:00,
2016-02-10 15:08:00,50.7,17.1,30.27,NNW,338,2.0,8.0,26,0.00,,,0.00,meteobridge,2016-02-10 21:08:00,
2016-02-10 15:13:00,50.7,18.0,30.27,WNW,300,0.0,4.0,27,0.00,,,0.00,meteobridge,2016-02-10 21:13:00,
2016-02-10 15:18:00,51.1,17.4,30.27,West,263,4.0,10.0,26,0.00,,,0.00,meteobridge,2016-02-10 21:18:00,
2016-02-10 15:23:00,50.7,18.0,30.27,WSW,241,2.9,4.0,27,0.00,,,0.00,meteobridge,2016-02-10 21:23:00,
2016-02-10 15:28:00,50.7,18.0,30.27,WSW,240,6.0,6.0,27,0.00,,,0.00,meteobridge,2016-02-10 21:28:00,
2016-02-10 15:39:00,50.7,17.1,30.28,NNE,23,0.0,10.0,26,0.00,,,0.00,meteobridge,2016-02-10 21:39:00,
2016-02-10 15:44:00,50.5,16.9,30.27,NNE,32,2.0,6.0,26,0.00,,,0.00,meteobridge,2016-02-10 21:44:00,
2016-02-10 15:49:00,50.4,16.7,30.28,NNE,29,2.0,7.0,26,0.00,,,0.00,meteobridge,2016-02-10 21:49:00,
2016-02-10 15:59:00,50.4,16.7,30.28,SW,221,0.9,10.0,26,0.00,,,0.00,meteobridge,2016-02-10 21:59:00,
2016-02-10 16:04:00,50.4,17.6,30.28,NNW,334,0.9,3.0,27,0.00,,,0.00,meteobridge,2016-02-10 22:04:00,
2016-02-10 16:09:00,50.2,17.4,30.28,WSW,255,0.9,3.0,27,0.00,,,0.00,meteobridge,2016-02-10 22:09:00,
2016-02-10 16:14:00,50.4,18.5,30.28,South,190,2.9,3.0,28,0.00,,,0.00,meteobridge,2016-02-10 22:14:00,
2016-02-10 16:19:00,50.4,17.6,30.28,SSW,213,2.0,6.0,27,0.00,,,0.00,meteobridge,2016-02-10 22:19:00,
2016-02-10 16:24:00,50.2,17.4,30.28,NW,316,0.0,4.0,27,0.00,,,0.00,meteobridge,2016-02-10 22:24:00,
2016-02-10 16:29:00,50.0,17.2,30.28,NNE,31,0.9,6.0,27,0.00,,,0.00,meteobridge,2016-02-10 22:29:00,
2016-02-10 16:34:00,49.8,17.2,30.28,NNW,336,2.0,3.0,27,0.00,,,0.00,meteobridge,2016-02-10 22:34:00,
2016-02-10 16:39:00,49.6,17.8,30.28,West,259,2.9,5.0,28,0.00,,,0.00,meteobridge,2016-02-10 22:39:00,
2016-02-10 16:45:00,49.6,17.8,30.29,NE,36,0.0,4.0,28,0.00,,,0.00,meteobridge,2016-02-10 22:45:00,
2016-02-10 16:50:00,49.6,17.8,30.28,East,97,0.9,3.0,28,0.00,,,0.00,meteobridge,2016-02-10 22:50:00,
2016-02-10 16:55:00,49.8,18.9,30.28,WSW,248,6.0,6.0,29,0.00,,,0.00,meteobridge,2016-02-10 22:55:00,
2016-02-10 17:00:00,49.8,18.9,30.28,West,269,0.9,2.0,29,0.00,,,0.00,meteobridge,2016-02-10 23:00:00,
2016-02-10 17:05:00,50.0,19.0,30.28,West,273,0.0,3.0,29,0.00,,,0.00,meteobridge,2016-02-10 23:05:00,
2016-02-10 17:10:00,49.8,18.9,30.28,SW,222,0.9,3.0,29,0.00,,,0.00,meteobridge,2016-02-10 23:10:00,
2016-02-10 17:15:00,49.5,19.2,30.28,West,267,0.0,1.0,30,0.00,,,0.00,meteobridge,2016-02-10 23:15:00,
2016-02-10 17:20:00,48.7,20.1,30.28,WSW,238,0.0,1.0,32,0.00,,,0.00,meteobridge,2016-02-10 23:20:00,
2016-02-10 17:25:00,48.0,20.3,30.28,WSW,251,0.0,0.0,33,0.00,,,0.00,meteobridge,2016-02-10 23:25:00,
2016-02-10 17:35:00,46.9,22.1,30.28,WSW,253,0.0,0.0,37,0.00,,,0.00,meteobridge,2016-02-10 23:35:00,
2016-02-10 17:40:00,45.9,22.8,30.29,WSW,253,0.0,0.0,40,0.00,,,0.00,meteobridge,2016-02-10 23:40:00,
2016-02-10 17:45:00,45.0,24.4,30.29,WSW,253,0.0,0.0,44,0.00,,,0.00,meteobridge,2016-02-10 23:45:00,
2016-02-10 17:50:00,43.9,25.5,30.29,WSW,253,0.0,0.0,48,0.00,,,0.00,meteobridge,2016-02-10 23:50:00,
2016-02-10 17:55:00,43.0,24.6,30.29,WSW,253,0.0,0.0,48,0.00,,,0.00,meteobridge,2016-02-10 23:55:00,
2016-02-10 18:00:00,42.4,25.2,30.28,WSW,253,0.0,0.0,50,0.00,,,0.00,meteobridge,2016-02-11 00:00:00,
2016-02-10 18:05:00,42.1,24.3,30.28,WSW,253,0.0,0.0,49,0.00,,,0.00,meteobridge,2016-02-11 00:05:00,
2016-02-10 18:11:00,41.4,24.1,30.28,WSW,253,0.0,0.0,50,0.00,,,0.00,meteobridge,2016-02-11 00:11:00,
2016-02-10 18:16:00,40.8,25.9,30.28,WSW,253,0.0,0.0,55,0.00,,,0.00,meteobridge,2016-02-11 00:16:00,
2016-02-10 18:21:00,40.3,25.9,30.28,WSW,253,0.0,0.0,56,0.00,,,0.00,meteobridge,2016-02-11 00:21:00,
2016-02-10 18:26:00,39.7,26.2,30.27,WSW,253,0.0,0.0,58,0.00,,,0.00,meteobridge,2016-02-11 00:26:00,
2016-02-10 18:31:00,39.4,27.5,30.27,WSW,253,0.0,0.0,62,0.00,,,0.00,meteobridge,2016-02-11 00:31:00,
2016-02-10 18:36:00,38.8,27.0,30.27,WSW,253,0.0,0.0,62,0.00,,,0.00,meteobridge,2016-02-11 00:36:00,
2016-02-10 18:41:00,38.1,26.6,30.27,WSW,253,0.0,0.0,63,0.00,,,0.00,meteobridge,2016-02-11 00:41:00,
2016-02-10 18:46:00,37.9,26.4,30.27,WSW,253,0.0,0.0,63,0.00,,,0.00,meteobridge,2016-02-11 00:46:00,
2016-02-10 18:51:00,37.6,27.3,30.27,WSW,253,0.0,0.0,66,0.00,,,0.00,meteobridge,2016-02-11 00:51:00,
2016-02-10 18:56:00,37.6,28.0,30.27,WSW,253,0.0,0.0,68,0.00,,,0.00,meteobridge,2016-02-11 00:56:00,
2016-02-10 19:01:00,37.2,27.7,30.27,WSW,253,0.0,0.0,68,0.00,,,0.00,meteobridge,2016-02-11 01:01:00,
2016-02-10 19:06:00,37.2,27.7,30.27,WSW,253,0.0,0.0,68,0.00,,,0.00,meteobridge,2016-02-11 01:06:00,
2016-02-10 19:11:00,36.9,27.3,30.27,WSW,253,0.0,0.0,68,0.00,,,0.00,meteobridge,2016-02-11 01:11:00,
2016-02-10 19:16:00,36.3,27.5,30.27,WSW,253,0.0,0.0,70,0.00,,,0.00,meteobridge,2016-02-11 01:16:00,
2016-02-10 19:21:00,36.3,27.1,30.27,WSW,253,0.0,0.0,69,0.00,,,0.00,meteobridge,2016-02-11 01:21:00,
2016-02-10 19:26:00,36.1,27.3,30.27,WSW,253,0.0,0.0,70,0.00,,,0.00,meteobridge,2016-02-11 01:26:00,
2016-02-10 19:32:00,36.1,27.7,30.27,WSW,253,0.0,0.0,71,0.00,,,0.00,meteobridge,2016-02-11 01:32:00,
2016-02-10 19:37:00,36.0,27.9,30.27,WSW,253,0.0,0.0,72,0.00,,,0.00,meteobridge,2016-02-11 01:37:00,
2016-02-10 19:42:00,36.0,27.5,30.27,WSW,253,0.0,0.0,71,0.00,,,0.00,meteobridge,2016-02-11 01:42:00,
2016-02-10 19:47:00,36.0,27.9,30.27,WSW,253,0.0,1.0,72,0.00,,,0.00,meteobridge,2016-02-11 01:47:00,
2016-02-10 19:52:00,36.1,28.9,30.27,West,263,0.0,0.0,75,0.00,,,0.00,meteobridge,2016-02-11 01:52:00,
2016-02-10 19:57:00,36.1,28.9,30.27,West,278,0.0,0.0,75,0.00,,,0.00,meteobridge,2016-02-11 01:57:00,
2016-02-10 20:07:00,36.1,28.4,30.27,West,278,0.0,0.0,73,0.00,,,0.00,meteobridge,2016-02-11 02:07:00,
2016-02-10 20:12:00,36.5,27.7,30.27,West,278,0.0,0.0,70,0.00,,,0.00,meteobridge,2016-02-11 02:12:00,
2016-02-10 20:17:00,37.2,27.3,30.27,West,266,0.0,0.0,67,0.00,,,0.00,meteobridge,2016-02-11 02:17:00,
2016-02-10 20:28:00,37.2,26.6,30.27,West,266,0.0,0.0,65,0.00,,,0.00,meteobridge,2016-02-11 02:28:00,
2016-02-10 20:33:00,37.0,26.8,30.27,West,265,0.0,0.0,66,0.00,,,0.00,meteobridge,2016-02-11 02:33:00,
2016-02-10 20:38:00,36.9,26.6,30.27,West,265,0.0,0.0,66,0.00,,,0.00,meteobridge,2016-02-11 02:38:00,
2016-02-10 20:43:00,36.9,27.3,30.27,West,265,0.0,0.0,68,0.00,,,0.00,meteobridge,2016-02-11 02:43:00,
2016-02-10 20:48:00,36.9,26.6,30.27,West,265,0.0,0.0,66,0.00,,,0.00,meteobridge,2016-02-11 02:48:00,
2016-02-10 20:53:00,36.7,27.5,30.27,West,265,0.0,0.0,69,0.00,,,0.00,meteobridge,2016-02-11 02:53:00,
2016-02-10 21:03:00,36.3,27.5,30.27,West,266,0.0,0.0,70,0.00,,,0.00,meteobridge,2016-02-11 03:03:00,
2016-02-10 21:08:00,36.0,27.5,30.27,West,265,0.0,0.0,71,0.00,,,0.00,meteobridge,2016-02-11 03:08:00,
2016-02-10 21:13:00,35.8,28.0,30.27,West,266,0.0,0.0,73,0.00,,,0.00,meteobridge,2016-02-11 03:13:00,
2016-02-10 21:18:00,35.4,27.3,30.27,West,266,0.0,0.0,72,0.00,,,0.00,meteobridge,2016-02-11 03:18:00,
2016-02-10 21:24:00,35.2,27.9,30.27,West,265,0.0,0.0,74,0.00,,,0.00,meteobridge,2016-02-11 03:24:00,
2016-02-10 21:29:00,35.1,27.7,30.27,West,266,0.0,0.0,74,0.00,,,0.00,meteobridge,2016-02-11 03:29:00,
2016-02-10 21:34:00,34.9,27.7,30.27,West,265,0.0,0.0,75,0.00,,,0.00,meteobridge,2016-02-11 03:34:00,
2016-02-10 21:39:00,34.5,27.7,30.27,West,265,0.0,0.0,76,0.00,,,0.00,meteobridge,2016-02-11 03:39:00,
2016-02-10 21:44:00,34.7,27.9,30.27,West,266,0.0,0.0,76,0.00,,,0.00,meteobridge,2016-02-11 03:44:00,
2016-02-10 21:49:00,34.5,27.7,30.27,West,265,0.0,0.0,76,0.00,,,0.00,meteobridge,2016-02-11 03:49:00,
2016-02-10 21:54:00,34.3,27.9,30.27,West,265,0.0,0.0,77,0.00,,,0.00,meteobridge,2016-02-11 03:54:00,
2016-02-10 21:59:00,34.3,27.9,30.27,West,265,0.0,0.0,77,0.00,,,0.00,meteobridge,2016-02-11 03:59:00,
2016-02-10 22:04:00,34.2,28.0,30.27,West,266,0.0,0.0,78,0.00,,,0.00,meteobridge,2016-02-11 04:04:00,
2016-02-10 22:09:00,34.0,28.2,30.26,West,266,0.0,0.0,79,0.00,,,0.00,meteobridge,2016-02-11 04:09:00,
2016-02-10 22:14:00,33.6,28.0,30.27,West,266,0.0,0.0,80,0.00,,,0.00,meteobridge,2016-02-11 04:14:00,
2016-02-10 22:19:00,33.4,28.2,30.26,West,266,0.0,0.0,81,0.00,,,0.00,meteobridge,2016-02-11 04:19:00,
2016-02-10 22:24:00,33.1,28.2,30.26,West,266,0.0,0.0,82,0.00,,,0.00,meteobridge,2016-02-11 04:24:00,
2016-02-10 22:29:00,32.9,28.6,30.26,West,265,0.0,0.0,84,0.00,,,0.00,meteobridge,2016-02-11 04:29:00,
2016-02-10 22:35:00,32.9,28.6,30.26,West,265,0.0,0.0,84,0.00,,,0.00,meteobridge,2016-02-11 04:35:00,